Time,TemperatureF,DewpointF,PressureIn,WindDirection,WindDirectionDegrees,WindSpeedMPH,WindSpeedGustMPH,Humidity,HourlyPrecipIn,Conditions,Clouds,dailyrainin,SolarRadiationWatts/m^2,SoftwareType,DateUTC
2015-05-22 00:14:00,49.7,48.0,30.17,North,8,1.0,10.0,95,0.00,,,0.00,0,weatherlink.com 1.10,2015-05-21 22:14:00,
2015-05-22 00:30:00,49.6,48.0,30.17,NNE,29,0.0,9.0,95,0.00,,,0.00,0,weatherlink.com 1.10,2015-05-21 22:30:00,
2015-05-22 00:45:00,49.5,48.0,30.17,NNE,19,3.0,6.0,94,0.00,,,0.00,0,weatherlink.com 1.10,2015-05-21 22:45:00,
2015-05-22 01:00:00,49.4,48.0,30.16,NW,317,0.0,6.0,94,0.00,,,0.00,0,weatherlink.com 1.10,2015-05-21 23:00:00,
2015-05-22 01:15:00,49.4,48.0,30.16,North,3,2.0,6.0,94,0.00,,,0.00,0,weatherlink.com 1.10,2015-05-21 23:15:00,
2015-05-22 01:30:00,49.3,48.0,30.17,NNE,12,1.0,7.0,94,0.00,,,0.00,0,weatherlink.com 1.10,2015-05-21 23:30:00,
2015-05-22 01:45:00,49.3,48.0,30.17,NNW,341,0.0,8.0,94,0.00,,,0.00,0,weatherlink.com 1.10,2015-05-21 23:45:00,
2015-05-22 02:00:00,49.3,48.0,30.17,NNW,341,0.0,6.0,94,0.00,,,0.00,0,weatherlink.com 1.10,2015-05-22 00:00:00,
2015-05-22 02:15:00,49.4,48.0,30.17,NNE,13,2.0,9.0,94,0.00,,,0.00,0,weatherlink.com 1.10,2015-05-22 00:15:00,
2015-05-22 02:30:00,49.3,48.0,30.17,NNE,22,2.0,11.0,94,0.00,,,0.00,0,weatherlink.com 1.10,2015-05-22 00:30:00,
2015-05-22 02:45:00,49.3,48.0,30.17,East,101,0.0,9.0,94,0.00,,,0.00,0,weatherlink.com 1.10,2015-05-22 00:45:00,
2015-05-22 03:00:00,49.4,48.0,30.17,ENE,67,3.0,7.0,93,0.00,,,0.00,0,weatherlink.com 1.10,2015-05-22 01:00:00,
2015-05-22 03:15:00,49.4,48.0,30.18,NNW,335,1.0,7.0,93,0.00,,,0.00,0,weatherlink.com 1.10,2015-05-22 01:15:00,
2015-05-22 03:30:00,49.5,48.0,30.17,WNW,290,5.0,11.0,93,0.00,,,0.00,0,weatherlink.com 1.10,2015-05-22 01:30:00,
2015-05-22 03:45:00,49.5,48.0,30.17,North,351,0.0,3.0,93,0.00,,,0.00,0,weatherlink.com 1.10,2015-05-22 01:45:00,
2015-05-22 04:15:00,49.6,48.0,30.18,North,2,3.0,6.0,93,0.00,,,0.00,0,weatherlink.com 1.10,2015-05-22 02:15:00,
2015-05-22 04:45:00,49.7,48.0,30.17,WNW,296,1.0,8.0,94,0.00,,,0.00,0,weatherlink.com 1.10,2015-05-22 02:45:00,
2015-05-22 05:00:00,49.7,48.0,30.18,WNW,293,1.0,5.0,94,0.00,,,0.00,0,weatherlink.com 1.10,2015-05-22 03:00:00,
2015-05-22 05:15:00,49.6,48.0,30.18,East,80,1.0,5.0,94,0.00,,,0.00,0,weatherlink.com 1.10,2015-05-22 03:15:00,
2015-05-22 05:30:00,49.7,48.0,30.17,West,280,1.0,5.0,94,0.00,,,0.00,5,weatherlink.com 1.10,2015-05-22 03:30:00,
2015-05-22 05:45:00,49.8,48.0,30.18,NNW,339,1.0,8.0,94,0.01,,,0.01,7,weatherlink.com 1.10,2015-05-22 03:45:00,
2015-05-22 06:00:00,49.8,48.0,30.18,North,353,3.0,7.0,94,0.01,,,0.01,14,weatherlink.com 1.10,2015-05-22 04:00:00,
2015-05-22 06:15:00,49.8,48.0,30.19,West,263,0.0,6.0,93,0.01,,,0.01,12,weatherlink.com 1.10,2015-05-22 04:15:00,
2015-05-22 06:30:00,49.9,48.0,30.19,SW,223,1.0,6.0,93,0.00,,,0.01,23,weatherlink.com 1.10,2015-05-22 04:30:00,
2015-05-22 06:45:00,49.9,48.0,30.18,NNW,339,0.0,6.0,93,0.00,,,0.01,42,weatherlink.com 1.10,2015-05-22 04:45:00,
2015-05-22 07:00:00,50.1,48.0,30.19,ESE,108,1.0,5.0,93,0.00,,,0.01,37,weatherlink.com 1.10,2015-05-22 05:00:00,
2015-05-22 07:15:00,50.3,48.0,30.19,NE,50,2.0,10.0,92,0.00,,,0.01,69,weatherlink.com 1.10,2015-05-22 05:15:00,
2015-05-22 07:30:00,50.5,48.0,30.19,NNE,15,1.0,8.0,91,0.00,,,0.01,79,weatherlink.com 1.10,2015-05-22 05:30:00,
2015-05-22 07:45:00,50.8,48.0,30.19,NE,48,5.0,9.0,90,0.00,,,0.01,76,weatherlink.com 1.10,2015-05-22 05:45:00,
2015-05-22 08:00:00,51.1,48.0,30.19,SE,129,2.0,12.0,89,0.00,,,0.01,100,weatherlink.com 1.10,2015-05-22 06:00:00,
2015-05-22 08:15:00,51.4,48.0,30.19,SE,142,2.0,7.0,88,0.00,,,0.01,125,weatherlink.com 1.10,2015-05-22 06:15:00,
2015-05-22 08:30:00,51.7,48.0,30.20,North,2,2.0,7.0,87,0.00,,,0.01,139,weatherlink.com 1.10,2015-05-22 06:30:00,
2015-05-22 08:45:00,52.1,48.0,30.19,NNE,13,3.0,11.0,85,0.00,,,0.01,149,weatherlink.com 1.10,2015-05-22 06:45:00,
2015-05-22 09:00:00,52.4,48.0,30.20,WNW,294,8.0,8.0,84,0.00,,,0.01,156,weatherlink.com 1.10,2015-05-22 07:00:00,
2015-05-22 09:15:00,52.8,48.0,30.20,ENE,78,4.0,9.0,83,0.00,,,0.01,183,weatherlink.com 1.10,2015-05-22 07:15:00,
2015-05-22 09:30:00,53.3,48.0,30.20,ESE,104,5.0,11.0,83,0.00,,,0.01,186,weatherlink.com 1.10,2015-05-22 07:30:00,
2015-05-22 09:45:00,53.6,48.0,30.20,NNE,19,4.0,9.0,82,0.00,,,0.01,206,weatherlink.com 1.10,2015-05-22 07:45:00,
2015-05-22 10:00:00,54.1,49.0,30.20,NNE,19,4.0,7.0,82,0.00,,,0.01,229,weatherlink.com 1.10,2015-05-22 08:00:00,
2015-05-22 10:16:00,54.2,48.0,30.20,NE,49,5.0,11.0,80,0.00,,,0.01,253,weatherlink.com 1.10,2015-05-22 08:16:00,
2015-05-22 10:31:00,54.5,48.0,30.21,East,82,1.0,19.0,79,0.00,,,0.01,251,weatherlink.com 1.10,2015-05-22 08:31:00,
2015-05-22 10:46:00,54.5,47.0,30.21,NNE,32,5.0,13.0,77,0.00,,,0.01,213,weatherlink.com 1.10,2015-05-22 08:46:00,
2015-05-22 11:01:00,54.6,48.0,30.20,NNE,32,3.0,14.0,78,0.00,,,0.01,255,weatherlink.com 1.10,2015-05-22 09:01:00,
2015-05-22 11:16:00,55.5,48.0,30.20,NNE,32,6.0,14.0,77,0.00,,,0.01,513,weatherlink.com 1.10,2015-05-22 09:16:00,
2015-05-22 11:31:00,56.2,49.0,30.20,ENE,58,4.0,11.0,76,0.00,,,0.01,369,weatherlink.com 1.10,2015-05-22 09:31:00,
2015-05-22 11:46:00,56.0,48.0,30.20,ENE,59,2.0,20.0,75,0.00,,,0.01,390,weatherlink.com 1.10,2015-05-22 09:46:00,
2015-05-22 12:01:00,56.0,47.0,30.20,NE,53,9.0,20.0,72,0.00,,,0.01,299,weatherlink.com 1.10,2015-05-22 10:01:00,
2015-05-22 12:16:00,57.1,49.0,30.19,ENE,59,3.0,13.0,73,0.00,,,0.01,408,weatherlink.com 1.10,2015-05-22 10:16:00,
2015-05-22 12:31:00,56.8,48.0,30.19,NNE,30,6.0,12.0,73,0.00,,,0.01,362,weatherlink.com 1.10,2015-05-22 10:31:00,
2015-05-22 12:46:00,56.5,48.0,30.19,NNE,29,4.0,14.0,72,0.00,,,0.01,315,weatherlink.com 1.10,2015-05-22 10:46:00,
2015-05-22 13:01:00,56.7,48.0,30.18,NE,40,3.0,11.0,73,0.00,,,0.01,309,weatherlink.com 1.10,2015-05-22 11:01:00,
2015-05-22 13:16:00,56.9,48.0,30.18,North,9,4.0,11.0,72,0.00,,,0.01,297,weatherlink.com 1.10,2015-05-22 11:16:00,
2015-05-22 13:31:00,56.9,48.0,30.17,NE,40,9.0,15.0,72,0.00,,,0.01,364,weatherlink.com 1.10,2015-05-22 11:31:00,
2015-05-22 13:46:00,56.7,47.0,30.18,North,5,3.0,17.0,70,0.00,,,0.01,232,weatherlink.com 1.10,2015-05-22 11:46:00,
2015-05-22 14:01:00,56.3,47.0,30.18,NNW,344,2.0,11.0,72,0.00,,,0.01,158,weatherlink.com 1.10,2015-05-22 12:01:00,
2015-05-22 14:16:00,56.0,47.0,30.18,NE,45,2.0,12.0,73,0.00,,,0.01,169,weatherlink.com 1.10,2015-05-22 12:16:00,
2015-05-22 14:46:00,56.5,48.0,30.17,ESE,107,3.0,9.0,74,0.00,,,0.01,171,weatherlink.com 1.10,2015-05-22 12:46:00,
2015-05-22 15:01:00,55.2,47.0,30.16,NNE,21,5.0,13.0,75,0.00,,,0.01,137,weatherlink.com 1.10,2015-05-22 13:01:00,
2015-05-22 15:16:00,55.3,48.0,30.16,East,82,9.0,10.0,75,0.00,,,0.01,153,weatherlink.com 1.10,2015-05-22 13:16:00,
2015-05-22 15:31:00,55.3,47.0,30.15,SE,140,7.0,11.0,74,0.00,,,0.01,185,weatherlink.com 1.10,2015-05-22 13:31:00,
2015-05-22 15:46:00,55.5,47.0,30.15,NE,49,6.0,15.0,74,0.00,,,0.01,163,weatherlink.com 1.10,2015-05-22 13:46:00,
2015-05-22 16:01:00,55.4,47.0,30.14,East,85,3.0,12.0,74,0.00,,,0.01,151,weatherlink.com 1.10,2015-05-22 14:01:00,
2015-05-22 16:16:00,55.5,47.0,30.14,NE,34,13.0,15.0,73,0.00,,,0.01,171,weatherlink.com 1.10,2015-05-22 14:16:00,
2015-05-22 16:31:00,55.5,47.0,30.14,NE,50,4.0,11.0,74,0.00,,,0.01,142,weatherlink.com 1.10,2015-05-22 14:31:00,
2015-05-22 16:46:00,55.2,47.0,30.13,NE,42,1.0,13.0,74,0.00,,,0.01,130,weatherlink.com 1.10,2015-05-22 14:46:00,
2015-05-22 17:01:00,55.6,47.0,30.14,NNE,21,2.0,10.0,74,0.00,,,0.01,149,weatherlink.com 1.10,2015-05-22 15:01:00,
2015-05-22 17:16:00,55.4,47.0,30.14,NE,42,1.0,9.0,74,0.00,,,0.01,98,weatherlink.com 1.10,2015-05-22 15:16:00,
2015-05-22 17:31:00,55.2,47.0,30.13,NE,56,2.0,10.0,75,0.00,,,0.01,84,weatherlink.com 1.10,2015-05-22 15:31:00,
2015-05-22 17:46:00,55.2,47.0,30.13,NE,48,2.0,9.0,75,0.00,,,0.01,79,weatherlink.com 1.10,2015-05-22 15:46:00,
2015-05-22 18:01:00,55.2,48.0,30.13,ESE,102,2.0,8.0,76,0.00,,,0.01,76,weatherlink.com 1.10,2015-05-22 16:01:00,
2015-05-22 18:16:00,55.2,48.0,30.12,East,94,3.0,7.0,77,0.00,,,0.01,81,weatherlink.com 1.10,2015-05-22 16:16:00,
2015-05-22 18:31:00,55.0,48.0,30.12,NE,39,2.0,10.0,77,0.00,,,0.01,69,weatherlink.com 1.10,2015-05-22 16:31:00,
2015-05-22 18:46:00,54.8,48.0,30.12,North,9,3.0,6.0,77,0.00,,,0.01,42,weatherlink.com 1.10,2015-05-22 16:46:00,
2015-05-22 19:01:00,54.6,47.0,30.12,NNE,30,3.0,7.0,76,0.00,,,0.01,25,weatherlink.com 1.10,2015-05-22 17:01:00,
2015-05-22 19:16:00,54.5,47.0,30.12,NE,50,2.0,8.0,76,0.00,,,0.01,23,weatherlink.com 1.10,2015-05-22 17:16:00,
2015-05-22 19:31:00,54.4,47.0,30.12,ESE,123,3.0,11.0,76,0.00,,,0.01,12,weatherlink.com 1.10,2015-05-22 17:31:00,
2015-05-22 19:46:00,54.4,47.0,30.12,NNE,32,3.0,7.0,76,0.00,,,0.01,5,weatherlink.com 1.10,2015-05-22 17:46:00,
2015-05-22 20:01:00,54.2,47.0,30.12,ENE,60,5.0,6.0,76,0.00,,,0.01,0,weatherlink.com 1.10,2015-05-22 18:01:00,